Location: Beuerbach
(48.1459°N, 10.9174°E)
Time: 02:17:15
(UTC+00:00)

SL-27 R/B - Pass Details

Date: 23 May 2024
Orbit: 330 x 354 km, 74.7° (Epoch: 13 June)

Event Time Altitude Azimuth Distance (km) Brightness Sun altitude
Exits shadow 01:12:16 15° 131° (SE) 1,034 4.1 -16.2°
Maximum altitude 01:13:20 18° 102° (ESE) 920 4.2 -16.1°
Drops below altitude 10° 01:15:18 10° 56° (ENE) 1,270 5.7 -16.0°
Sets 01:17:37 0° 36° (NE) 2,112 7.6 -15.8°
